[[{"header":{"parameterUnit":"m.s-1","parameterCategory":1,"la1":30.2991,"la2":30.254,"lo1":-89.0895,"lo2":-89.0444,"dy":0.0017,"dx":0.0017,"nx":28,"ny":28,"refTime":"2024-02-21T09:00:00:Z","depth":0,"parameterNumber":2,"parameterNumberName":"U-component_of_WINDS"},"data":[0,0,0,0,0,0,0,0,0,0,0,0,0,0,0,0,0,0,0,0,0,0,0,0,0,0,0,0,0,0,0,0,0,0,0,0,0,0,0,0,0,0,0,0,0,0,0,0,0,0,0,0,0,0,0,0,0,0,0.9501,0.9502,0,0.9566,0.9567,0.9568,0.9516,0.9514,0.9512,0.951,0.9579,0.9583,0.9587,0,0,0,0,0,0,0,0,0,0,0,0,0,0.9334,0.9337,0.9501,0.9502,0.9502,0.9566,0.9567,0.9568,0.9517,0.9514,0.9511,0.9509,0.9578,0.9582,0.9587,0,0,0,0,0,0,0,0,0,0,0,0,0,0.9404,0.9338,0.9501,0.9485,0.9484,0.9566,0.9567,0.9568,0.9517,0.9514,0.9511,0.9508,0.9576,0.9582,0.9588,0.969,0,0,0.9606,0.9608,0,0,0,0,0,0,0,0,0.94,0.941,0.9486,0.9486,0.9485,0.953,0.9534,0.9609,0.9518,0.9505,0.951,0.9506,0.9566,0.9572,0.9592,0.9693,0.9696,0.9606,0.961,0.9612,0.9614,0,0,0,0,0,0,0,0.9395,0.9407,0.9527,0.9487,0.9487,0.9475,0.9481,0.9548,0.9553,0.9506,0.9502,0.951,0.9565,0.9586,0.9593,0.9697,0.9606,0.9611,0.9615,0.9617,0.9887,0.989,0,0,0,0,0,0,0.9392,0.9403,0.9525,0.9529,0.9433,0.948,0.9487,0.9519,0.9552,0.9554,0.9513,0.9508,0.9578,0.9586,0.9595,0.9717,0.9612,0.9618,0.9621,0.9883,0.9888,0.9892,0,0,0,0,0,0,0.9388,0.9403,0.9522,0.9465,0.9479,0.9487,0.9522,0.9522,0.9543,0.9558,0.9559,0.9534,0.9575,0.9587,0.9667,0.9719,0.962,0.9626,0.9879,0.9885,0.989,0.9963,0,0,0,0,0,0,0.9384,0.9402,0.944,0.9466,0.9482,0.9592,0.9526,0.9525,0.9553,0.9547,0.9577,0.9579,0.9574,0.9658,0.9673,0.9725,0.963,0.9874,0.9881,0.9888,0.9956,0.997,0.9982,0,0,0,0,0,0.9378,0.9459,0.9443,0.9458,0.9531,0.9595,0.9605,0.9596,0.9558,0.9597,0.9606,0.9578,0.9711,0.9667,0.9683,0.9738,0.9871,0.9879,0.9887,0.995,0.9967,0.9982,0,0,0,0,0,0,0.944,0.9462,0.9444,0.9536,0.9564,0.9586,0.9635,0.9615,0.9655,0.9647,0.9635,0.9643,0.9727,0.974,0.9691,0.9839,0.9785,0.9797,0.9827,0.9844,0.9857,0.9852,0.9635,0,0,0,0,0,0.9464,0.9514,0.9531,0.961,0.9625,0.9628,0.9656,0.9647,0.9676,0.9687,0.9703,0.9732,0.9781,0.9813,0.9858,0.9957,0.9964,1.0003,1.0016,1.0027,1.0038,1.0092,1.011,0.9919,0.9918,0.9918,0,0,0.9515,0.9533,0.9565,0.9623,0.9644,0.9696,0.9638,0.9697,0.9736,0.9696,0.9773,0.9785,0.9818,0.9908,0.9948,0.9922,1.0092,1.0038,1.0046,1.0051,1.0102,1.012,1.0136,0.9924,0.9923,0.9922,0,0,0.9634,0.9653,0.9721,0.9743,0.9775,0.9776,0.9792,0.9818,0.9825,0.9901,0.9873,0.9919,1.0003,1.0027,1.0051,1.018,1.0156,1.0195,1.0265,1.0317,1.0332,1.0346,1.0392,1.0409,1.0205,1.0205,1.0205,0,0.9693,0.9771,0.9759,0.9819,0.9846,0.9812,0.9881,0.9903,0.9949,0.9968,0.9937,1.0042,1.0061,1.0157,1.0188,1.0208,1.0227,1.0191,1.0331,1.0344,1.0356,1.0401,1.0418,1.021,1.0209,1.0209,1.0208,0,0.9843,0.9897,0.9948,0.9992,1.0024,1.0089,1.0088,1.0122,1.011,1.0115,1.0193,1.0215,1.0265,1.0287,1.0276,1.0381,1.0364,1.0332,1.0278,1.0379,1.0421,1.0438,1.0216,1.0215,1.0213,1.0212,0,0,1.0003,1.0039,1.0058,1.0078,1.0111,1.0153,1.0216,1.0264,1.0294,1.0326,1.038,1.0451,1.0422,1.0449,1.0441,1.0487,1.0588,1.045,1.0451,1.0475,1.0706,1.073,1.075,1.0573,1.0576,1.0578,1.0704,0,1.0124,1.0234,1.0225,1.0329,1.0379,1.0348,1.0403,1.043,1.0436,1.048,1.0488,1.0539,1.0497,1.0512,1.0557,1.0567,1.0635,1.0557,1.0623,1.0626,1.0616,1.0771,1.0796,1.0913,1.072,1.0722,1.0724,0,1.028,1.0317,1.0426,1.0452,1.0472,1.0522,1.0565,1.0608,1.0638,1.0639,1.0669,1.0653,1.0718,1.0661,1.0751,1.0699,1.0725,1.0734,1.0738,1.0744,1.0681,1.0782,1.095,1.0968,1.075,1.0748,1.0746,0,1.0387,1.0464,1.0539,1.0557,1.0589,1.0624,1.0639,1.0666,1.0695,1.0733,1.0752,1.0797,1.0822,1.0858,1.0855,1.0814,1.0946,1.0889,1.095,1.095,1.0979,1.0977,1.1155,1.0996,1.0995,1.0995,1.0995,0,1.0523,1.0591,1.0588,1.0634,1.071,1.0699,1.0774,1.0785,1.0809,1.0857,1.0833,1.0879,1.0872,1.0919,1.0917,1.0992,1.1003,1.1006,1.1005,1.1009,1.1009,1.1026,1.1018,1.1,1.0999,1.0998,1.0997,0,1.0655,1.0655,1.0735,1.0758,1.0766,1.082,1.084,1.0885,1.0889,1.0951,1.0965,1.0972,1.1025,1.1026,1.1087,1.1086,1.1177,1.1167,1.1167,1.1165,1.1225,1.122,1.1421,1.1447,1.1271,1.1272,1.1274,0,1.0742,1.0794,1.0822,1.0852,1.0869,1.0919,1.0948,1.094,1.0972,1.101,1.105,1.1101,1.1141,1.1229,1.124,1.1287,1.1277,1.1344,1.1284,1.1286,1.1279,1.1276,1.1281,1.1356,1.1358,1.136,1.1361,0,1.0897,1.0894,1.0937,1.0981,1.1017,1.1051,1.1083,1.1109,1.1104,1.1142,1.1196,1.1227,1.129,1.1341,1.1387,1.1403,1.1382,1.138,1.1396,1.1401,1.1399,1.1401,1.1199,1.1376,1.1374,1.1373,1.1372,1.1372,1.1009,1.1053,1.108,1.1129,1.1152,1.1182,1.1225,1.1234,1.1279,1.1329,1.1321,1.1382,1.1411,1.147,1.149,1.1538,1.1514,1.1538,1.1544,1.155,1.1557,1.1391,1.1546,1.1545,1.1545,1.1545,1.1544,0,1.1163,1.1178,1.1224,1.1268,1.1307,1.1283,1.1317,1.1351,1.1404,1.1433,1.1473,1.1535,1.1585,1.16,1.1649,1.1684,1.1676,1.1697,1.1694,1.1699,1.1575,1.1556,1.1703,1.1703,1.1703,1.1703,1.1703,1.1703,1.1247,1.1321,1.1322,1.1407,1.1422,1.1481,1.1502,1.153,1.1553,1.1623,1.1664,1.1674,1.1697,1.1747,1.1792,1.1795,1.1814,1.184,1.1839,1.1723,1.1707,1.1692,1.1674,1.1844,1.1844,1.1959,1.196,1.1961]},{"header":{"parameterUnit":"m.s-1","parameterCategory":1,"la1":30.2991,"la2":30.254,"lo1":-89.0895,"lo2":-89.0444,"dy":0.0017,"dx":0.0017,"nx":28,"ny":28,"refTime":"2024-02-21T09:00:00:Z","depth":0,"parameterNumber":3,"parameterNumberName":"V-component_of_WINDS"},"data":[0,0,0,0,0,0,0,0,0,0,0,0,0,0,0,0,0,0,0,0,0,0,0,0,0,0,0,0,0,0,0,0,0,0,0,0,0,0,0,0,0,0,0,0,0,0,0,0,0,0,0,0,0,0,0,0,0,0,1.9021,1.9021,0,1.9033,1.9033,1.9033,1.8965,1.8963,1.8961,1.8959,1.8972,1.8974,1.8976,0,0,0,0,0,0,0,0,0,0,0,0,0,1.8941,1.8943,1.9021,1.9021,1.9022,1.9033,1.9033,1.9033,1.8965,1.8963,1.8961,1.8959,1.8971,1.8974,1.8976,0,0,0,0,0,0,0,0,0,0,0,0,0,1.8967,1.8943,1.9021,1.8989,1.8986,1.9033,1.9033,1.9033,1.8966,1.8963,1.896,1.8957,1.897,1.8974,1.8977,1.9055,0,0,1.8987,1.8988,0,0,0,0,0,0,0,0,1.8965,1.897,1.8994,1.8991,1.8988,1.8995,1.9009,1.9041,1.8967,1.8974,1.8959,1.8956,1.8982,1.8984,1.8993,1.9055,1.9056,1.8987,1.8989,1.899,1.8991,0,0,0,0,0,0,0,1.8964,1.8969,1.9026,1.8994,1.8991,1.8974,1.8975,1.9015,1.8994,1.8973,1.8968,1.897,1.898,1.899,1.8992,1.9056,1.8987,1.899,1.8992,1.8993,1.9184,1.9187,0,0,0,0,0,0,1.8966,1.8968,1.9025,1.9026,1.8969,1.8978,1.8979,1.8996,1.8993,1.899,1.8973,1.8967,1.8986,1.8989,1.8993,1.9084,1.899,1.8993,1.8995,1.9181,1.9185,1.9188,0,0,0,0,0,0,1.8965,1.8972,1.9025,1.8996,1.9001,1.8983,1.9002,1.8997,1.9007,1.8993,1.8989,1.8987,1.8983,1.8988,1.904,1.9083,1.8995,1.8998,1.9177,1.9182,1.9186,1.9268,0,0,0,0,0,0,1.8963,1.8972,1.9001,1.8997,1.9003,1.9072,1.9005,1.9,1.9013,1.9005,1.9005,1.9002,1.8981,1.9035,1.9043,1.9086,1.9,1.9173,1.9179,1.9185,1.9261,1.9275,1.9286,0,0,0,0,0,1.896,1.9024,1.9003,1.901,1.9039,1.9075,1.9078,1.9053,1.9016,1.9046,1.9037,1.9002,1.9077,1.9041,1.9049,1.9094,1.917,1.9177,1.9184,1.9255,1.9272,1.9286,0,0,0,0,0,0,1.9034,1.9022,1.8999,1.9064,1.9071,1.9063,1.91,1.9071,1.9089,1.9082,1.9049,1.905,1.9107,1.9106,1.9066,1.917,1.9117,1.9127,1.9169,1.9184,1.9197,1.9196,1.9003,0,0,0,0,0,1.9057,1.9087,1.9076,1.9133,1.9138,1.9119,1.9133,1.9113,1.9119,1.9122,1.9117,1.9124,1.9149,1.9167,1.9189,1.926,1.9259,1.9295,1.9308,1.9318,1.9327,1.9364,1.938,1.9211,1.9211,1.9211,0,0,1.9107,1.9104,1.9125,1.9148,1.9151,1.9183,1.9122,1.9158,1.9181,1.9127,1.9176,1.9173,1.9179,1.9241,1.9268,1.9241,1.9373,1.9327,1.9336,1.9338,1.9373,1.9389,1.9403,1.9216,1.9215,1.9214,0,0,1.9213,1.9214,1.9262,1.9267,1.9272,1.9259,1.927,1.9267,1.9263,1.9311,1.9272,1.9299,1.9343,1.9349,1.9358,1.9467,1.9436,1.9475,1.9541,1.9578,1.9592,1.9603,1.9642,1.9657,1.9483,1.9484,1.9484,0,1.9274,1.9319,1.9291,1.933,1.9341,1.9294,1.9343,1.9348,1.9361,1.937,1.934,1.9395,1.9396,1.9458,1.9485,1.9494,1.9506,1.9475,1.9592,1.9603,1.9614,1.9651,1.9666,1.9488,1.9488,1.9487,1.9487,0,1.9394,1.9427,1.9465,1.9478,1.9494,1.9538,1.9516,1.9535,1.9514,1.9504,1.9554,1.9553,1.9575,1.9588,1.9567,1.9648,1.9632,1.9598,1.9544,1.9635,1.9669,1.9683,1.9495,1.9494,1.9492,1.9491,0,0,1.9547,1.9544,1.9558,1.9564,1.9567,1.9591,1.9633,1.9654,1.9672,1.9682,1.9716,1.9755,1.9723,1.9733,1.9713,1.9746,1.9832,1.9707,1.9707,1.9731,1.9922,1.9947,1.9964,1.9811,1.9814,1.9816,1.9921,0,1.9651,1.9721,1.9697,1.9769,1.9799,1.9755,1.9791,1.9797,1.9789,1.9813,1.9804,1.9832,1.9788,1.9793,1.9824,1.9815,1.987,1.9807,1.9843,1.9845,1.9843,1.9982,2.0009,2.0109,1.9934,1.9936,1.9938,0,1.9781,1.9797,1.9872,1.987,1.9882,1.9915,1.9932,1.9956,1.9962,1.9953,1.9965,1.9938,1.9978,1.9925,1.9981,1.9939,1.9952,1.9951,1.9954,1.9956,1.9897,1.9989,2.0139,2.0155,1.9959,1.9957,1.9956,0,1.9886,1.9926,1.9976,1.9982,1.998,2.0005,2.0005,2.0008,2.0022,2.0038,2.0047,2.0067,2.0078,2.0094,2.0073,2.0036,2.0132,2.0077,2.0127,2.0127,2.0149,2.0148,2.0304,2.0157,2.0157,2.0157,2.0157,0,2.0004,2.0052,2.0023,2.0054,2.0106,2.0078,2.013,2.0126,2.0129,2.0158,2.0121,2.015,2.012,2.0146,2.013,2.0179,2.0184,2.0178,2.0174,2.0182,2.0183,2.019,2.0183,2.0161,2.016,2.0159,2.0159,0,2.013,2.0112,2.0164,2.0158,2.0158,2.0197,2.0192,2.0221,2.021,2.0247,2.0255,2.0238,2.0266,2.0247,2.0275,2.0264,2.0329,2.0314,2.0327,2.0323,2.0374,2.0369,2.0541,2.0562,2.0401,2.0403,2.0404,0,2.0207,2.0242,2.0241,2.0258,2.0261,2.0289,2.0303,2.0277,2.0293,2.0302,2.033,2.0355,2.0374,2.0422,2.0412,2.0434,2.042,2.0478,2.0423,2.043,2.0421,2.0419,2.0422,2.0489,2.0491,2.0493,2.0494,0,2.0345,2.0335,2.0357,2.0376,2.0394,2.0408,2.0419,2.0435,2.0408,2.0429,2.0457,2.0472,2.0501,2.0527,2.0545,2.0546,2.0516,2.0512,2.0524,2.0533,2.0539,2.0537,2.0358,2.0508,2.0507,2.0506,2.0505,2.0504,2.0449,2.0479,2.0482,2.0508,2.0514,2.0525,2.0551,2.0544,2.0567,2.0589,2.0572,2.0606,2.0611,2.0632,2.0636,2.0663,2.0639,2.0657,2.0662,2.0667,2.0674,2.0535,2.0666,2.0666,2.0665,2.0665,2.0665,0,2.0586,2.0586,2.061,2.0626,2.0647,2.0617,2.0627,2.0647,2.0677,2.0684,2.0704,2.0737,2.0762,2.0754,2.0776,2.0799,2.0786,2.0806,2.0804,2.0804,2.0694,2.0681,2.0816,2.0816,2.0816,2.0816,2.0816,2.0816,2.0659,2.0708,2.0698,2.075,2.0749,2.0783,2.0791,2.0801,2.0807,2.0846,2.0866,2.0861,2.0862,2.0884,2.0905,2.0902,2.0912,2.0938,2.093,2.0827,2.0812,2.0798,2.0785,2.094,2.094,2.1038,2.1039,2.1039]}]]